[[{"header":{"parameterUnit":"m.s-1","parameterCategory":1,"la1":30.2991,"la2":30.254,"lo1":-89.0895,"lo2":-89.0444,"dy":0.0017,"dx":0.0017,"nx":28,"ny":28,"refTime":"2024-10-02T21:00:00:Z","depth":0,"parameterNumber":2,"parameterNumberName":"U-component_of_WINDS"},"data":[0,0,0,0,0,0,0,0,0,0,0,0,0,0,0,0,0,0,0,0,0,0,0,0,0,0,0,0,0,0,0,0,0,0,0,0,0,0,0,0,0,0,0,0,0,0,0,0,0,0,0,0,0,0,0,0,0,0,-4.3139,-4.3139,0,-4.3107,-4.3107,-4.3106,-4.2938,-4.2934,-4.293,-4.2926,-4.2898,-4.2901,-4.2904,0,0,0,0,0,0,0,0,0,0,0,0,0,-4.3058,-4.306,-4.3139,-4.3139,-4.3138,-4.3107,-4.3107,-4.3106,-4.2938,-4.2933,-4.2929,-4.2924,-4.2897,-4.29,-4.2904,0,0,0,0,0,0,0,0,0,0,0,0,0,-4.3067,-4.3061,-4.3139,-4.3051,-4.3042,-4.3107,-4.3107,-4.3106,-4.2939,-4.2933,-4.2927,-4.2922,-4.2896,-4.29,-4.2905,-4.3054,0,0,-4.2918,-4.292,0,0,0,0,0,0,0,0,-4.3066,-4.307,-4.3064,-4.3057,-4.3048,-4.302,-4.3068,-4.3089,-4.2941,-4.2979,-4.2926,-4.2919,-4.2944,-4.2944,-4.2951,-4.3052,-4.3051,-4.2919,-4.2922,-4.2923,-4.2925,0,0,0,0,0,0,0,-4.3066,-4.307,-4.3126,-4.3064,-4.3054,-4.3014,-4.3008,-4.3071,-4.2996,-4.2975,-4.2963,-4.2961,-4.2938,-4.2947,-4.2949,-4.3051,-4.2919,-4.2923,-4.2925,-4.2927,-4.3272,-4.3278,0,0,0,0,0,0,-4.3077,-4.3071,-4.3127,-4.3125,-4.3042,-4.302,-4.3014,-4.3035,-4.2994,-4.2982,-4.2966,-4.2953,-4.2943,-4.2944,-4.2948,-4.312,-4.2923,-4.2928,-4.293,-4.3266,-4.3273,-4.328,0,0,0,0,0,0,-4.3076,-4.3084,-4.3129,-4.3095,-4.3097,-4.3028,-4.3053,-4.3038,-4.3047,-4.2988,-4.2974,-4.2989,-4.2938,-4.2942,-4.3028,-4.3116,-4.293,-4.2934,-4.3258,-4.3268,-4.3277,-4.3465,0,0,0,0,0,0,-4.3075,-4.3084,-4.314,-4.3097,-4.31,-4.3209,-4.3058,-4.3041,-4.3054,-4.3037,-4.3006,-4.2995,-4.2933,-4.3022,-4.3033,-4.3119,-4.2937,-4.325,-4.3262,-4.3274,-4.3451,-4.348,-4.3505,0,0,0,0,0,-4.3072,-4.3195,-4.3144,-4.3151,-4.3167,-4.3215,-4.3216,-4.3142,-4.3062,-4.3118,-4.308,-4.2996,-4.3105,-4.3033,-4.3043,-4.3132,-4.3244,-4.3259,-4.3273,-4.3438,-4.3474,-4.3504,0,0,0,0,0,0,-4.3252,-4.3188,-4.313,-4.3243,-4.3235,-4.3186,-4.3254,-4.3182,-4.3198,-4.3182,-4.309,-4.3084,-4.3185,-4.3167,-4.3088,-4.3274,-4.316,-4.3177,-4.3282,-4.3316,-4.3343,-4.3345,-4.2941,0,0,0,0,0,-4.3305,-4.3347,-4.3289,-4.3394,-4.3393,-4.3325,-4.3343,-4.3286,-4.3275,-4.3271,-4.3239,-4.3234,-4.3266,-4.329,-4.3316,-4.3447,-4.3438,-4.3513,-4.354,-4.3563,-4.3579,-4.3647,-4.368,-4.3328,-4.3328,-4.3327,0,0,-4.3414,-4.3384,-4.3417,-4.343,-4.3417,-4.3464,-4.3323,-4.3379,-4.3414,-4.328,-4.336,-4.3336,-4.3323,-4.3433,-4.3479,-4.3421,-4.3674,-4.3581,-4.36,-4.3604,-4.3665,-4.3699,-4.3728,-4.3338,-4.3336,-4.3334,0,0,-4.3638,-4.3619,-4.3704,-4.3694,-4.3676,-4.3629,-4.365,-4.3612,-4.359,-4.3668,-4.3569,-4.3609,-4.3667,-4.3662,-4.3667,-4.3887,-4.3811,-4.3899,-4.4041,-4.4108,-4.4136,-4.416,-4.424,-4.4269,-4.3915,-4.3916,-4.3916,0,-4.3777,-4.3842,-4.3758,-4.382,-4.3829,-4.3708,-4.3794,-4.3788,-4.3782,-4.3791,-4.3725,-4.3794,-4.3777,-4.3884,-4.3937,-4.3945,-4.3967,-4.3903,-4.4139,-4.4162,-4.4183,-4.4258,-4.4288,-4.3926,-4.3925,-4.3924,-4.3923,0,-4.4014,-4.4062,-4.4133,-4.4127,-4.4143,-4.4218,-4.4145,-4.4172,-4.4113,-4.4074,-4.4155,-4.413,-4.415,-4.417,-4.4114,-4.4269,-4.4233,-4.4155,-4.4038,-4.4229,-4.4298,-4.4326,-4.3942,-4.3938,-4.3935,-4.3932,0,0,-4.4353,-4.4297,-4.4325,-4.432,-4.4291,-4.4326,-4.4395,-4.4412,-4.4438,-4.4436,-4.4493,-4.4544,-4.447,-4.4476,-4.4418,-4.4477,-4.4654,-4.4391,-4.4389,-4.4442,-4.4824,-4.4884,-4.4919,-4.4603,-4.4608,-4.4612,-4.4825,0,-4.4567,-4.468,-4.4605,-4.4731,-4.4773,-4.4658,-4.4718,-4.4707,-4.4672,-4.4704,-4.4666,-4.4704,-4.4603,-4.4606,-4.4659,-4.4622,-4.473,-4.4605,-4.4656,-4.4658,-4.4664,-4.4954,-4.5018,-4.5221,-4.4851,-4.4856,-4.4859,0,-4.4833,-4.4841,-4.4971,-4.4932,-4.4947,-4.5002,-4.5011,-4.5043,-4.5029,-4.4999,-4.5005,-4.4932,-4.4998,-4.4882,-4.4972,-4.4889,-4.4905,-4.489,-4.4896,-4.4899,-4.4772,-4.4967,-4.5284,-4.5315,-4.49,-4.4897,-4.4894,0,-4.5068,-4.5111,-4.5194,-4.5194,-4.515,-4.5192,-4.5176,-4.5155,-4.517,-4.5179,-4.5187,-4.5205,-4.5215,-4.523,-4.5164,-4.5086,-4.5263,-4.5142,-4.5241,-4.5244,-4.5285,-4.5284,-4.5611,-4.5294,-4.5294,-4.5293,-4.5293,0,-4.5316,-4.54,-4.5299,-4.535,-4.5441,-4.5354,-4.5447,-4.5419,-4.5401,-4.5446,-4.5347,-4.5392,-4.5301,-4.5337,-4.5285,-4.5368,-4.5373,-4.5352,-4.5338,-4.5362,-4.5365,-4.5372,-4.5357,-4.5301,-4.5299,-4.5298,-4.5297,0,-4.5594,-4.5529,-4.5612,-4.5563,-4.5553,-4.5622,-4.5581,-4.5627,-4.5584,-4.5642,-4.5651,-4.5585,-4.5622,-4.5556,-4.5586,-4.5551,-4.5667,-4.563,-4.5672,-4.5661,-4.5765,-4.5757,-4.6109,-4.6152,-4.5807,-4.5811,-4.5813,0,-4.5757,-4.5819,-4.5776,-4.5798,-4.5787,-4.5824,-4.5838,-4.5755,-4.5774,-4.5761,-4.5809,-4.5837,-4.5855,-4.5919,-4.5875,-4.5896,-4.586,-4.5982,-4.5863,-4.5885,-4.5863,-4.5861,-4.5867,-4.6007,-4.6012,-4.6015,-4.6018,0,-4.6054,-4.6019,-4.6042,-4.6054,-4.6073,-4.6079,-4.6078,-4.6102,-4.6014,-4.6041,-4.6076,-4.609,-4.6118,-4.6148,-4.6158,-4.6143,-4.6067,-4.6055,-4.608,-4.6105,-4.6127,-4.6118,-4.574,-4.6048,-4.6045,-4.6043,-4.6041,-4.604,-4.628,-4.6329,-4.6306,-4.6336,-4.6325,-4.6327,-4.6367,-4.6329,-4.6356,-4.6371,-4.6321,-4.6368,-4.6352,-4.6358,-4.6351,-4.6387,-4.6333,-4.6368,-4.6378,-4.6388,-4.6405,-4.612,-4.6389,-4.6388,-4.6387,-4.6386,-4.6385,0,-4.6573,-4.6552,-4.6579,-4.658,-4.6603,-4.6526,-4.6521,-4.6546,-4.6588,-4.6578,-4.6597,-4.6638,-4.6666,-4.6623,-4.6644,-4.6681,-4.6647,-4.669,-4.6687,-4.6685,-4.6451,-4.6429,-4.6717,-4.6717,-4.6717,-4.6717,-4.6717,-4.6717,-4.6728,-4.6807,-4.6768,-4.6842,-4.682,-4.6864,-4.6868,-4.6869,-4.686,-4.6909,-4.6931,-4.6902,-4.688,-4.6898,-4.692,-4.6907,-4.692,-4.6975,-4.6951,-4.6734,-4.6701,-4.667,-4.6649,-4.6979,-4.6979,-4.7181,-4.7183,-4.7184]},{"header":{"parameterUnit":"m.s-1","parameterCategory":1,"la1":30.2991,"la2":30.254,"lo1":-89.0895,"lo2":-89.0444,"dy":0.0017,"dx":0.0017,"nx":28,"ny":28,"refTime":"2024-10-02T21:00:00:Z","depth":0,"parameterNumber":3,"parameterNumberName":"V-component_of_WINDS"},"data":[0,0,0,0,0,0,0,0,0,0,0,0,0,0,0,0,0,0,0,0,0,0,0,0,0,0,0,0,0,0,0,0,0,0,0,0,0,0,0,0,0,0,0,0,0,0,0,0,0,0,0,0,0,0,0,0,0,0,-2.0307,-2.0308,0,-2.0387,-2.0388,-2.0389,-2.0416,-2.0416,-2.0415,-2.0415,-2.0496,-2.0499,-2.0501,0,0,0,0,0,0,0,0,0,0,0,0,0,-2.0175,-2.0178,-2.0307,-2.0308,-2.0309,-2.0387,-2.0388,-2.0389,-2.0416,-2.0416,-2.0415,-2.0415,-2.0496,-2.0499,-2.0501,0,0,0,0,0,0,0,0,0,0,0,0,0,-2.0241,-2.0178,-2.0307,-2.0332,-2.0335,-2.0386,-2.0388,-2.0389,-2.0416,-2.0416,-2.0415,-2.0415,-2.0495,-2.0498,-2.0502,-2.0534,0,0,-2.0513,-2.0515,0,0,0,0,0,0,0,0,-2.0238,-2.0246,-2.0327,-2.033,-2.0334,-2.0391,-2.0371,-2.0438,-2.0416,-2.0385,-2.0415,-2.0414,-2.0462,-2.0468,-2.0484,-2.0538,-2.0542,-2.0514,-2.0516,-2.0517,-2.0518,0,0,0,0,0,0,0,-2.0233,-2.0243,-2.0338,-2.0328,-2.0332,-2.0338,-2.0347,-2.0384,-2.0425,-2.0388,-2.039,-2.0399,-2.0463,-2.048,-2.0486,-2.0543,-2.0513,-2.0517,-2.0519,-2.052,-2.0626,-2.0626,0,0,0,0,0,0,-2.0224,-2.0239,-2.0336,-2.0341,-2.0283,-2.0341,-2.0351,-2.0373,-2.0425,-2.0432,-2.0399,-2.04,-2.0474,-2.0482,-2.0489,-2.053,-2.0517,-2.0521,-2.0523,-2.0625,-2.0626,-2.0626,0,0,0,0,0,0,-2.0222,-2.0233,-2.0333,-2.0291,-2.0304,-2.0344,-2.0368,-2.0375,-2.0392,-2.0434,-2.0441,-2.041,-2.0474,-2.0484,-2.0523,-2.0533,-2.0522,-2.0526,-2.0624,-2.0625,-2.0626,-2.0611,0,0,0,0,0,0,-2.0218,-2.0232,-2.0245,-2.0291,-2.0306,-2.0365,-2.0369,-2.0377,-2.0398,-2.04,-2.0445,-2.0452,-2.0475,-2.0517,-2.0526,-2.0538,-2.0529,-2.0624,-2.0625,-2.0626,-2.0611,-2.0611,-2.0612,0,0,0,0,0,-2.0213,-2.0238,-2.0246,-2.0257,-2.0323,-2.0366,-2.0374,-2.04,-2.0399,-2.0412,-2.0439,-2.0451,-2.053,-2.0521,-2.0531,-2.0544,-2.0623,-2.0624,-2.0626,-2.0611,-2.0611,-2.0612,0,0,0,0,0,0,-2.0193,-2.0244,-2.0254,-2.0294,-2.0325,-2.037,-2.0388,-2.04,-2.0432,-2.0433,-2.0463,-2.0473,-2.0509,-2.053,-2.0519,-2.0577,-2.0577,-2.0581,-2.0562,-2.0563,-2.0563,-2.0557,-2.0532,0,0,0,0,0,-2.0193,-2.0224,-2.0267,-2.0299,-2.0314,-2.0348,-2.0367,-2.0384,-2.0418,-2.0431,-2.0461,-2.0492,-2.0524,-2.0545,-2.0577,-2.0614,-2.0623,-2.0628,-2.0628,-2.0628,-2.0631,-2.0651,-2.0653,-2.063,-2.063,-2.063,0,0,-2.0194,-2.0226,-2.0244,-2.0295,-2.0321,-2.0351,-2.0359,-2.0391,-2.0413,-2.0436,-2.0474,-2.0496,-2.0534,-2.0571,-2.0589,-2.059,-2.0639,-2.063,-2.063,-2.0632,-2.0652,-2.0654,-2.0656,-2.0631,-2.0631,-2.0631,0,0,-2.0211,-2.0239,-2.0268,-2.0293,-2.0333,-2.0355,-2.0361,-2.0404,-2.042,-2.0459,-2.0476,-2.0502,-2.0557,-2.0582,-2.0603,-2.0627,-2.0638,-2.0636,-2.0639,-2.0658,-2.0659,-2.0661,-2.0669,-2.0671,-2.0639,-2.0639,-2.0639,0,-2.0208,-2.0254,-2.0281,-2.0312,-2.0333,-2.0354,-2.0383,-2.0406,-2.0454,-2.0468,-2.0468,-2.0536,-2.0563,-2.0606,-2.0612,-2.0628,-2.0636,-2.0632,-2.0657,-2.0659,-2.0661,-2.0669,-2.0672,-2.0638,-2.0638,-2.0638,-2.0638,0,-2.0247,-2.0279,-2.0297,-2.0342,-2.0366,-2.0395,-2.0425,-2.0446,-2.046,-2.0482,-2.052,-2.0552,-2.059,-2.0602,-2.0616,-2.0646,-2.0646,-2.0651,-2.0652,-2.0662,-2.067,-2.0673,-2.0637,-2.0638,-2.0638,-2.0638,0,0,-2.0255,-2.0313,-2.0319,-2.0339,-2.0383,-2.0408,-2.0437,-2.0474,-2.0491,-2.0522,-2.0547,-2.0592,-2.0597,-2.062,-2.0637,-2.0654,-2.0669,-2.0657,-2.0658,-2.0658,-2.0703,-2.0699,-2.0702,-2.0677,-2.0678,-2.0678,-2.07,0,-2.0278,-2.0332,-2.0356,-2.0399,-2.0428,-2.0447,-2.0473,-2.0502,-2.0523,-2.055,-2.0573,-2.0604,-2.0608,-2.0622,-2.0639,-2.0664,-2.0679,-2.0662,-2.07,-2.0701,-2.069,-2.0706,-2.0702,-2.0721,-2.0703,-2.0704,-2.0704,0,-2.0312,-2.0343,-2.0388,-2.0427,-2.044,-2.0463,-2.0498,-2.0524,-2.0556,-2.057,-2.0594,-2.0611,-2.0641,-2.0639,-2.0681,-2.0669,-2.0686,-2.07,-2.0702,-2.0706,-2.0703,-2.071,-2.0727,-2.073,-2.0709,-2.0709,-2.0708,0,-2.0312,-2.0365,-2.0399,-2.0416,-2.0462,-2.0477,-2.0497,-2.0529,-2.0549,-2.058,-2.0593,-2.0626,-2.0644,-2.0669,-2.0693,-2.069,-2.0733,-2.0733,-2.0745,-2.0744,-2.0753,-2.0752,-2.0773,-2.0764,-2.0764,-2.0764,-2.0764,0,-2.0334,-2.0361,-2.04,-2.042,-2.0451,-2.0477,-2.0506,-2.0528,-2.0556,-2.058,-2.0599,-2.0622,-2.0653,-2.0679,-2.0698,-2.0729,-2.0737,-2.0749,-2.0754,-2.0747,-2.0746,-2.0759,-2.0758,-2.0765,-2.0764,-2.0764,-2.0764,0,-2.034,-2.0367,-2.0405,-2.0445,-2.0456,-2.0476,-2.051,-2.0531,-2.0552,-2.0583,-2.0591,-2.0624,-2.0656,-2.0682,-2.0724,-2.0737,-2.0769,-2.0775,-2.0758,-2.076,-2.077,-2.0769,-2.08,-2.0805,-2.0792,-2.0793,-2.0793,0,-2.0353,-2.0374,-2.0416,-2.0434,-2.0453,-2.0482,-2.0502,-2.0528,-2.0548,-2.0586,-2.0602,-2.0635,-2.0662,-2.0712,-2.0739,-2.0771,-2.0777,-2.0786,-2.0782,-2.0774,-2.0776,-2.0775,-2.0777,-2.0786,-2.0786,-2.0786,-2.0786,0,-2.0372,-2.0383,-2.0412,-2.0445,-2.0469,-2.0496,-2.0523,-2.0537,-2.0568,-2.0589,-2.0622,-2.0643,-2.0685,-2.0717,-2.0751,-2.0771,-2.0783,-2.0787,-2.0791,-2.0785,-2.0774,-2.0779,-2.0758,-2.0786,-2.0786,-2.0786,-2.0786,-2.0786,-2.0381,-2.04,-2.0432,-2.0463,-2.0486,-2.0511,-2.0532,-2.0555,-2.0583,-2.0619,-2.0632,-2.0665,-2.0696,-2.0743,-2.0762,-2.0788,-2.079,-2.0796,-2.0797,-2.0799,-2.0797,-2.0769,-2.0794,-2.0794,-2.0794,-2.0794,-2.0794,0,-2.0401,-2.0422,-2.045,-2.0488,-2.0511,-2.052,-2.0551,-2.057,-2.0599,-2.0626,-2.0653,-2.0689,-2.072,-2.0749,-2.0781,-2.0795,-2.0802,-2.0803,-2.0802,-2.0806,-2.0794,-2.0787,-2.0797,-2.0797,-2.0797,-2.0797,-2.0797,-2.0797,-2.0414,-2.0446,-2.0461,-2.0505,-2.0526,-2.0558,-2.0575,-2.0597,-2.0619,-2.0659,-2.0684,-2.0703,-2.0731,-2.0764,-2.0792,-2.08,-2.0811,-2.081,-2.0819,-2.0808,-2.0807,-2.0807,-2.08,-2.0812,-2.0813,-2.0829,-2.0829,-2.0829]}]]